[Date Prev][Date Next][Thread Prev][Thread Next][Date Index][Thread Index]

[jamsat-news:823] jas2info #86



=========================   最新情報   ==============================

        Last updated :Sat.8-May.-98 18:30 (JST) #86


====================================================================   
     衛星情報 FOシリーズの軌道要素、テレメトリ、QSOの状況等をま
   とめてみました.

  1)FO−29(ふじ3号)は5月8日 (土)の17:21(JST)の
     パスではJARLのホームページのとうりJAアナログモードで運用さ
     れていました.
         
  ■ 軌道要素1:「jamsatーkeps:689」より
                 SB KEPS @ AMSAT  $ORB98128.N
                 2Line Orbital Elements 98128.AMSAT

 HR AMSAT ORBITAL ELEMENTS FOR AMATEUR SATELLITES IN NASA FORMAT
 FROM WA5QGD FORT WORTH,TX May 8, 1998
 SEND SUBSCRIBE/UNSUBSCRIBE TO listserv@amsat.org ONLY
 BID: ORB98128.N

  DECODE 2-LINE ELSETS WITH THE FOLLOWING KEY:
  1 AAAAAU 00  0  0 BBBBB.BBBBBBBB  .CCCCCCCC  00000-0  00000-0 0  DDDZ
  2 AAAAA EEE.EEEE FFF.FFFF GGGGGGG HHH.HHHH III.IIII JJ.JJJJJJJJKKKKKZ
  KEY: A-CATALOGNUM B-EPOCHTIME C-DECAY D-ELSETNUM E-INCLINATION F-RAAN
  G-ECCENTRICITY H-ARGPERIGEE I-MNANOM J-MNMOTION K-ORBITNUM Z-CHECKSUM
  TO ALL RADIO AMATEURS BT
 
 FO-29
  1 24278U 96046B   98126.97833047 -.00000017  00000-0  15564-4 0 01698
  2 24278 098.5165 128.5539 0352373 066.8138 296.9716 13.52641312084894

 ■ 軌道要素2:「jamsatーkeps:690」より
                SB KEPS @ AMSAT  $ORB98128.O
                Orbital Elements  98128.OSCAR

  HR AMSAT ORBITAL ELEMENTS FOR OSCAR SATELLITES
  FROM WA5QGD FORT WORTH,TX May 8, 1998
  SEND SUBSCRIBE/UNSUBSCRIBE TO listserv@amsat.org ONLY
  BID: ORB98128.O
  TO ALL RADIO AMATEURS BT

  Satellite: FO-29
  Catalog number: 24278
  Epoch time:      98126.97833047
  Element set:    0169
  Inclination:      098.5165 deg
  RA of node:       128.5539 deg
  Eccentricity:    0.0352373
  Arg of perigee:   066.8138 deg
  Mean anomaly:     296.9716 deg
  Mean motion:   13.52641312 rev/day
  Decay rate:       -1.7e-07 rev/day^2
  Epoch rev:           08489
  Checksum:              356
 
 -----------------------------------------------------------
  1 )FO−29(ふじ3号)の 5月8日(土)はJAアナログモードで
     運用され、ビーコン波にのったテレメトリの一部分は次のようにな
     っていました.

  AS8521C  8May98
  JST 17:21 - 17:38

  HI HI AE C7 88 55 00 6E       35 56 60 94 91 B0 D6 8A 85 92 8F 88 
  HI HI AE C7 88 55 00 D7 O9 4     7F 60     A B0 7A 8A 85 92 8F 88 
  HI HI AE C7 88 55 00 CF 98 6     E8 6O 

  2 ) JDディジタルテレメトリの換算値例
	FO−29(ふじ3号)	
       (上記テレメトリの一行目を換算)
					
 テレメトリ   内   容          換算値  単位
 3C	磁気センサーZ軸=	25980.4	nT
 3D	磁気センサX軸	=	42156.9	nT
 4A	太陽電池発生電流=	  941.2	mA
 4B	B充放電電流	=	  900.8	mA
 4C	B端子電圧	= 	   15.6	V
 4D	B中間端子電圧	=	    8.5	V
 5A	バス電圧	=	   21.0	V
 5B	JTA送信電力	=	  798.9	mW
 5C 	構体温度1	=	   30.2	℃
 5D	構体温度2	=	   25.2	℃
 6A	構体温度3	=          26.3	℃
 6B	構体温度4	=	   29.1	℃
 6C	Bセル温度	=	   26.7	℃

   *計算処理は OFFICE 97 を使用.

 ==========================================================================  
  3)FO−20(ふじ 2号)のCWテレメトリは5月8日(土)のパスでも切れ
    目の無い連続音になっいましたが,アナログ QSOは通常どうり行われております.
 -------------------------------------------------------------------------- 
 
 ■ 軌道要素1 :出典は「ふじ3号」に同じ.
 
  FO-20
  1 20480U 90013C   98126.74685329 -.00000031  00000-0  47565-5 0 00647
  2 20480 099.0726 032.9820 0540889 005.1597 355.4779 12.83243672386201
   
  ■ 軌道要素2 :出典は「ふじ3号」に同じ. 
  
 Satellite: FO-20
 Catalog number: 20480
 Epoch time:      98126.74685329
 Element set:    0064
 Inclination:      099.0726 deg
 RA of node:       032.9820 deg
 Eccentricity:    0.0540889
 Arg of perigee:   005.1597 deg
 Mean anomaly:     355.4779 deg
 Mean motion:   12.83243672 rev/day
 Decay rate:       -3.1e-07 rev/day^2
 Epoch rev:           38620
 Checksum:              327
 
    =========================   JARL運用情報   =========================

  *JARL のホームページに運用の予定変更が記載されていましたのでご紹介します.

        ■ ふじ3号/FO−29 ■  
  QTC !
  運用について

   4月20日07時のパスでメモリーの2bitエラーを確認しました。コンピュータのリ
  セット及びプログラムのロード作業を行うため、アナログ系運用に切り換えました。
  しばらくの間アナログ系運用とします。

 以後の運用に付きましては4月28日18時頃にお知らせいたします。
       
        ■ ふじ2号/FO−20 ■      
            「ふじ2号」 現況                                                                                               
   JAS-1b/FO-20(ふじ2号)の不具合発生について
    JAS-1b(ふじ2号)のCWテレメトリ信号に,1997年10月12日12時
 (JST)の日本上空通過時,3桁の数字が繰り返されるはずが3個の長音の
  繰り返しとなっているという異常が発見されました。この不具合は次の通過時
  からは回復していましたが13日15時20分の通過時に再び観測されました。
  衛星のアナログ系中継モード動作は異常が無く,正常時のテレメトリ内容からは
  衛星の動作に異常は認められません。従って,直ちに衛星のミッションに影響す
  ることは無いと予想されますので,当面はアナログ系中継モードを継続します。
  衛星は既に打ち上げてから7年8ヶ月を経ておりますので,今後は監視を強化す
  る予定です。アマチュア各位のレポートをお待ちします.   
  
  以上  http://www.jarl.or.jp/Japanese/3_Fuji/jr1nvu.htm  より.
                                           
   =============   JAS-2 (ふじ3号)と現在までの情報   ===========  
  A.電話によるふじ3号の運用情報
      社団法人日本アマチュア連盟によるサービス
           TEL .   03− 3942 − 1000
  B.アマチュア無線FAXサービス
      JARLによるふじ3号の軌道情報(オービットカレンダー)
         FAX No.  03− 3233 −0055
  C.WWWブラウザで情報を簡単に見れる人のためにJAS−2
     ふじ3号の衛星としての運用されるまでの名前)の概要、打ち上げ
     までの状況、運用中における状況を説明したホームページを紹介し
     ておきます.
    1)社団法人日本アマチュア無線連盟(JARL)のホームページ

          http://www.jarl.or.jp/Japanese/3_Fuji/jr1nvu.htm
 
    2)宇宙開発事業団(NASDA)ホームページ 
          http://www.nasda.go.jp/
         打上げ衛星 :地球観測プラットフォーム技術衛星(ADEOS) 
                       アマチュア衛星3号(JAS-2)
          http://yyy.tksc.nasda.go.jp/Home/Press/Press-j/jas-2_j.html        

  D.JAMSATによる軌道情報の活用
        JAMSATのホームページまたはjamsat−kepsの軌道要素より
      衛星の軌道情報を得る.
     JAMSATホームページ
               URL    http://www.jamsat.or.jp
       上記ホームページでは各地で行われるアマチュア通信衛星に関する
      ミューティングのお知らせや世界のアマチュア衛星に関する情報が
      満載されています.
   
 =========================================================================
       JAMSATのメンバーのご協力によりJH6MME(高山 秀造)が
    執筆・編集を担当しております.ご指摘の意見、疑問やこのようにしたら
    というアイデアがありましたら小さなことでもかまいませんので気軽に下
    記アドレスまでご連絡ください.jamsat−newsからjas2
    infoへの転載をJH4PHW局坂井さんに担当して頂いております.
                    Eーmail : jh6mme@jamsat.or.jp : jh4phw@jamsat.or.jp
 ===============================   END  ===============================